Time,TemperatureF,DewpointF,PressureIn,WindDirection,WindDirectionDegrees,WindSpeedMPH,WindSpeedGustMPH,Humidity,HourlyPrecipIn,Conditions,Clouds,dailyrainin,SolarRadiationWatts/m^2,SoftwareType,DateUTC
2013-01-13 00:02:00,-14.0,-21.0,-100.00,NW,308,2.0,4.0,68,0.00,,,0.00,0.000000,,2013-01-13 07:02:00,
2013-01-13 00:33:00,-15.0,-22.0,-100.00,ESE,123,0.0,3.0,68,0.00,,,0.00,0.000000,,2013-01-13 07:33:00,
2013-01-13 00:42:00,-15.0,-22.0,-100.00,ESE,123,0.0,3.0,68,0.00,,,0.00,0.000000,,2013-01-13 07:42:00,
2013-01-13 00:52:00,-15.0,-22.0,-100.00,ESE,123,0.0,3.0,68,0.00,,,0.00,0.000000,,2013-01-13 07:52:00,
2013-01-13 01:02:00,-15.0,-22.0,-100.00,ESE,123,0.0,3.0,68,0.00,,,0.00,0.000000,,2013-01-13 08:02:00,
2013-01-13 01:32:00,-15.0,-23.0,-100.00,NW,307,1.0,3.0,67,0.00,,,0.00,0.000000,,2013-01-13 08:32:00,
2013-01-13 01:42:00,-15.0,-23.0,-100.00,NW,307,1.0,3.0,67,0.00,,,0.00,0.000000,,2013-01-13 08:42:00,
2013-01-13 01:53:00,-15.0,-23.0,-100.00,NW,307,1.0,3.0,67,0.00,,,0.00,0.000000,,2013-01-13 08:53:00,
2013-01-13 02:02:00,-15.0,-23.0,-100.00,NW,307,1.0,3.0,67,0.00,,,0.00,0.000000,,2013-01-13 09:02:00,
2013-01-13 02:32:00,-16.0,-23.0,-100.00,WNW,294,1.0,2.0,68,0.00,,,0.00,0.000000,,2013-01-13 09:32:00,
2013-01-13 02:42:00,-16.0,-23.0,-100.00,WNW,294,1.0,2.0,68,0.00,,,0.00,0.000000,,2013-01-13 09:42:00,
2013-01-13 02:52:00,-16.0,-23.0,-100.00,WNW,294,1.0,2.0,68,0.00,,,0.00,0.000000,,2013-01-13 09:52:00,
2013-01-13 03:02:00,-16.0,-23.0,-100.00,WNW,294,1.0,2.0,68,0.00,,,0.00,0.000000,,2013-01-13 10:02:00,
2013-01-13 03:32:00,-16.0,-23.0,-100.00,West,270,1.0,4.0,68,0.00,,,0.00,0.000000,,2013-01-13 10:32:00,
2013-01-13 03:42:00,-16.0,-23.0,-100.00,West,270,1.0,4.0,68,0.00,,,0.00,0.000000,,2013-01-13 10:42:00,
2013-01-13 03:53:00,-16.0,-23.0,-100.00,West,270,1.0,4.0,68,0.00,,,0.00,0.000000,,2013-01-13 10:53:00,
2013-01-13 04:02:00,-16.0,-23.0,-100.00,West,270,1.0,4.0,68,0.00,,,0.00,0.000000,,2013-01-13 11:02:00,
2013-01-13 04:33:00,-18.0,-25.0,-100.00,WNW,297,1.0,2.0,68,0.00,,,0.00,0.000000,,2013-01-13 11:33:00,
2013-01-13 04:42:00,-18.0,-25.0,-100.00,WNW,297,1.0,2.0,68,0.00,,,0.00,0.000000,,2013-01-13 11:42:00,
2013-01-13 04:53:00,-18.0,-25.0,-100.00,WNW,297,1.0,2.0,68,0.00,,,0.00,0.000000,,2013-01-13 11:53:00,
2013-01-13 05:03:00,-18.0,-25.0,-100.00,WNW,297,1.0,2.0,68,0.00,,,0.00,0.000000,,2013-01-13 12:03:00,
2013-01-13 05:33:00,-18.0,-26.0,-100.00,South,184,1.0,2.0,66,0.00,,,0.00,0.000000,,2013-01-13 12:33:00,
2013-01-13 05:42:00,-18.0,-26.0,-100.00,South,184,1.0,2.0,66,0.00,,,0.00,0.000000,,2013-01-13 12:42:00,
2013-01-13 05:53:00,-18.0,-26.0,-100.00,South,184,1.0,2.0,66,0.00,,,0.00,0.000000,,2013-01-13 12:53:00,
2013-01-13 06:02:00,-18.0,-26.0,-100.00,South,184,1.0,2.0,66,0.00,,,0.00,0.000000,,2013-01-13 13:02:00,
2013-01-13 06:33:00,-18.0,-26.0,-100.00,South,190,0.0,4.0,66,0.00,,,0.00,0.000000,,2013-01-13 13:33:00,
2013-01-13 06:43:00,-18.0,-26.0,-100.00,South,190,0.0,4.0,66,0.00,,,0.00,0.000000,,2013-01-13 13:43:00,
2013-01-13 06:53:00,-18.0,-26.0,-100.00,South,190,0.0,4.0,66,0.00,,,0.00,0.000000,,2013-01-13 13:53:00,
2013-01-13 07:03:00,-18.0,-26.0,-100.00,South,190,0.0,4.0,66,0.00,,,0.00,0.000000,,2013-01-13 14:03:00,
2013-01-13 07:33:00,-17.0,-25.0,-100.00,WNW,296,1.0,2.0,67,0.00,,,0.00,0.000000,,2013-01-13 14:33:00,
2013-01-13 07:43:00,-17.0,-25.0,-100.00,WNW,296,1.0,2.0,67,0.00,,,0.00,0.000000,,2013-01-13 14:43:00,
2013-01-13 07:53:00,-17.0,-25.0,-100.00,WNW,296,1.0,2.0,67,0.00,,,0.00,0.000000,,2013-01-13 14:53:00,
2013-01-13 08:03:00,-17.0,-25.0,-100.00,WNW,296,1.0,2.0,67,0.00,,,0.00,0.000000,,2013-01-13 15:03:00,
2013-01-13 08:33:00,-14.0,-22.0,-100.00,NNW,328,2.0,3.0,66,0.00,,,0.00,31.000000,,2013-01-13 15:33:00,
2013-01-13 08:43:00,-14.0,-22.0,-100.00,NNW,328,2.0,3.0,66,0.00,,,0.00,31.000000,,2013-01-13 15:43:00,
2013-01-13 08:53:00,-14.0,-22.0,-100.00,NNW,328,2.0,3.0,66,0.00,,,0.00,31.000000,,2013-01-13 15:53:00,
2013-01-13 09:03:00,-14.0,-22.0,-100.00,NNW,328,2.0,3.0,66,0.00,,,0.00,31.000000,,2013-01-13 16:03:00,
2013-01-13 09:33:00,-6.0,-17.0,-100.00,NNE,25,3.0,4.0,58,0.00,,,0.00,216.000000,,2013-01-13 16:33:00,
2013-01-13 09:43:00,-6.0,-17.0,-100.00,NNE,25,3.0,4.0,58,0.00,,,0.00,216.000000,,2013-01-13 16:43:00,
2013-01-13 09:53:00,-6.0,-17.0,-100.00,NNE,25,3.0,4.0,58,0.00,,,0.00,216.000000,,2013-01-13 16:53:00,
2013-01-13 10:03:00,-6.0,-17.0,-100.00,NNE,25,3.0,4.0,58,0.00,,,0.00,216.000000,,2013-01-13 17:03:00,
2013-01-13 10:33:00,3.0,-13.0,-100.00,East,101,2.0,4.0,47,0.00,,,0.00,373.000000,,2013-01-13 17:33:00,
2013-01-13 10:43:00,3.0,-13.0,-100.00,East,101,2.0,4.0,47,0.00,,,0.00,373.000000,,2013-01-13 17:43:00,
2013-01-13 10:53:00,3.0,-13.0,-100.00,East,101,2.0,4.0,47,0.00,,,0.00,373.000000,,2013-01-13 17:53:00,
2013-01-13 11:03:00,3.0,-13.0,-100.00,East,101,2.0,4.0,47,0.00,,,0.00,373.000000,,2013-01-13 18:03:00,
2013-01-13 11:33:00,3.0,-15.0,-100.00,SSE,153,3.0,7.0,42,0.00,,,0.00,315.000000,,2013-01-13 18:33:00,
2013-01-13 11:43:00,3.0,-15.0,-100.00,SSE,153,3.0,7.0,42,0.00,,,0.00,315.000000,,2013-01-13 18:43:00,
2013-01-13 11:53:00,3.0,-15.0,-100.00,SSE,153,3.0,7.0,42,0.00,,,0.00,315.000000,,2013-01-13 18:53:00,
2013-01-13 12:02:00,3.0,-15.0,-100.00,SSE,153,3.0,7.0,42,0.00,,,0.00,315.000000,,2013-01-13 19:02:00,
2013-01-13 12:33:00,4.0,-19.0,-100.00,SSE,148,4.0,10.0,32,0.00,,,0.00,393.000000,,2013-01-13 19:33:00,
2013-01-13 12:43:00,4.0,-19.0,-100.00,SSE,148,4.0,10.0,32,0.00,,,0.00,393.000000,,2013-01-13 19:43:00,
2013-01-13 12:53:00,4.0,-19.0,-100.00,SSE,148,4.0,10.0,32,0.00,,,0.00,393.000000,,2013-01-13 19:53:00,
2013-01-13 13:03:00,4.0,-19.0,-100.00,SSE,148,4.0,10.0,32,0.00,,,0.00,393.000000,,2013-01-13 20:03:00,
2013-01-13 13:33:00,6.0,-20.0,-100.00,North,5,3.0,8.0,28,0.00,,,0.00,270.000000,,2013-01-13 20:33:00,
2013-01-13 13:43:00,6.0,-20.0,-100.00,North,5,3.0,8.0,28,0.00,,,0.00,270.000000,,2013-01-13 20:43:00,
2013-01-13 13:53:00,6.0,-20.0,-100.00,North,5,3.0,8.0,28,0.00,,,0.00,270.000000,,2013-01-13 20:53:00,
2013-01-13 14:03:00,6.0,-20.0,-100.00,North,5,3.0,8.0,28,0.00,,,0.00,270.000000,,2013-01-13 21:03:00,
2013-01-13 14:33:00,7.0,-21.0,-100.00,South,172,6.0,12.0,25,0.00,,,0.00,345.000000,,2013-01-13 21:33:00,
2013-01-13 14:43:00,7.0,-21.0,-100.00,South,172,6.0,12.0,25,0.00,,,0.00,345.000000,,2013-01-13 21:43:00,
2013-01-13 14:53:00,7.0,-21.0,-100.00,South,172,6.0,12.0,25,0.00,,,0.00,345.000000,,2013-01-13 21:53:00,
2013-01-13 15:02:00,7.0,-21.0,-100.00,South,172,6.0,12.0,25,0.00,,,0.00,345.000000,,2013-01-13 22:02:00,
2013-01-13 16:33:00,1.0,-11.0,-100.00,SSE,155,7.0,13.0,56,-99.99,,,0.00,129.000000,,2013-01-13 23:33:00,
2013-01-13 16:43:00,1.0,-11.0,-100.00,SSE,155,7.0,13.0,56,-99.99,,,0.00,129.000000,,2013-01-13 23:43:00,
2013-01-13 16:53:00,1.0,-11.0,-100.00,SSE,155,7.0,13.0,56,-99.99,,,0.00,129.000000,,2013-01-13 23:53:00,
2013-01-13 17:03:00,1.0,-11.0,-100.00,SSE,155,7.0,13.0,56,-99.99,,,0.00,129.000000,,2013-01-14 00:03:00,
2013-01-13 17:33:00,-1.0,-8.0,-100.00,SSE,156,6.0,11.0,71,0.00,,,0.00,31.000000,,2013-01-14 00:33:00,
2013-01-13 17:43:00,-1.0,-8.0,-100.00,SSE,156,6.0,11.0,71,0.00,,,0.00,31.000000,,2013-01-14 00:43:00,
2013-01-13 17:53:00,-1.0,-8.0,-100.00,SSE,156,6.0,11.0,71,0.00,,,0.00,31.000000,,2013-01-14 00:53:00,
2013-01-13 18:03:00,-1.0,-8.0,-100.00,SSE,156,6.0,11.0,71,0.00,,,0.00,31.000000,,2013-01-14 01:03:00,
2013-01-13 18:33:00,-2.0,-8.0,-100.00,SSW,192,3.0,10.0,74,0.00,,,0.00,0.000000,,2013-01-14 01:33:00,
2013-01-13 18:42:00,-2.0,-8.0,-100.00,SSW,192,3.0,10.0,74,0.00,,,0.00,0.000000,,2013-01-14 01:42:00,
2013-01-13 18:53:00,-2.0,-8.0,-100.00,SSW,192,3.0,10.0,74,0.00,,,0.00,0.000000,,2013-01-14 01:53:00,
2013-01-13 19:03:00,-2.0,-8.0,-100.00,SSW,192,3.0,10.0,74,0.00,,,0.00,0.000000,,2013-01-14 02:03:00,
2013-01-13 19:33:00,-2.0,-8.0,-100.00,South,183,4.0,9.0,74,0.00,,,0.00,0.000000,,2013-01-14 02:33:00,
2013-01-13 19:43:00,-2.0,-8.0,-100.00,South,183,4.0,9.0,74,0.00,,,0.00,0.000000,,2013-01-14 02:43:00,
2013-01-13 19:53:00,-2.0,-8.0,-100.00,South,183,4.0,9.0,74,0.00,,,0.00,0.000000,,2013-01-14 02:53:00,
2013-01-13 20:02:00,-2.0,-8.0,-100.00,South,183,4.0,9.0,74,0.00,,,0.00,0.000000,,2013-01-14 03:02:00,
2013-01-13 20:33:00,-3.0,-9.0,-100.00,SSW,199,2.0,9.0,73,0.00,,,0.00,0.000000,,2013-01-14 03:33:00,
2013-01-13 20:43:00,-3.0,-9.0,-100.00,SSW,199,2.0,9.0,73,0.00,,,0.00,0.000000,,2013-01-14 03:43:00,
2013-01-13 20:53:00,-3.0,-9.0,-100.00,SSW,199,2.0,9.0,73,0.00,,,0.00,0.000000,,2013-01-14 03:53:00,
2013-01-13 21:02:00,-3.0,-9.0,-100.00,SSW,199,2.0,9.0,73,0.00,,,0.00,0.000000,,2013-01-14 04:02:00,
2013-01-13 21:32:00,-9.0,-17.0,-100.00,NNW,337,2.0,3.0,68,0.00,,,0.00,0.000000,,2013-01-14 04:32:00,
2013-01-13 21:42:00,-9.0,-17.0,-100.00,NNW,337,2.0,3.0,68,0.00,,,0.00,0.000000,,2013-01-14 04:42:00,
2013-01-13 21:53:00,-9.0,-17.0,-100.00,NNW,337,2.0,3.0,68,0.00,,,0.00,0.000000,,2013-01-14 04:53:00,
2013-01-13 22:03:00,-9.0,-17.0,-100.00,NNW,337,2.0,3.0,68,0.00,,,0.00,0.000000,,2013-01-14 05:03:00,
2013-01-13 22:33:00,-9.0,-16.0,-100.00,NW,314,0.0,3.0,71,0.00,,,0.00,0.000000,,2013-01-14 05:33:00,
2013-01-13 22:43:00,-9.0,-16.0,-100.00,NW,314,0.0,3.0,71,0.00,,,0.00,0.000000,,2013-01-14 05:43:00,
2013-01-13 22:53:00,-9.0,-16.0,-100.00,NW,314,0.0,3.0,71,0.00,,,0.00,0.000000,,2013-01-14 05:53:00,
2013-01-13 23:03:00,-9.0,-16.0,-100.00,NW,314,0.0,3.0,71,0.00,,,0.00,0.000000,,2013-01-14 06:03:00,
2013-01-13 23:33:00,-11.0,-18.0,-100.00,WNW,299,2.0,3.0,70,0.00,,,0.00,0.000000,,2013-01-14 06:33:00,
2013-01-13 23:43:00,-11.0,-18.0,-100.00,WNW,299,2.0,3.0,70,0.00,,,0.00,0.000000,,2013-01-14 06:43:00,
2013-01-13 23:53:00,-11.0,-18.0,-100.00,WNW,299,2.0,3.0,70,0.00,,,0.00,0.000000,,2013-01-14 06:53:00,